Year,Month,Day,Hour,Minute,Value (Times are PST for temperature in C)
2009,08,10,00,00,14.30
2009,08,10,00,01,14.30
2009,08,10,00,02,14.30
2009,08,10,00,03,14.40
2009,08,10,00,04,14.40
2009,08,10,00,05,14.40
2009,08,10,00,06,14.40
2009,08,10,00,07,14.40
2009,08,10,00,08,14.40
2009,08,10,00,09,14.40
2009,08,10,00,10,14.40
2009,08,10,00,11,14.40
2009,08,10,00,12,14.40
2009,08,10,00,13,14.40
2009,08,10,00,14,14.40
2009,08,10,00,15,14.40
2009,08,10,00,16,14.40
2009,08,10,00,17,14.40
2009,08,10,00,18,14.40
2009,08,10,00,19,14.40
2009,08,10,00,20,14.40
2009,08,10,00,21,14.40
2009,08,10,00,22,14.30
2009,08,10,00,23,14.30
2009,08,10,00,24,14.30
2009,08,10,00,25,14.30
2009,08,10,00,26,14.30
2009,08,10,00,27,14.30
2009,08,10,00,28,14.20
2009,08,10,00,29,14.20
2009,08,10,00,30,14.20
2009,08,10,00,31,14.20
2009,08,10,00,32,14.20
2009,08,10,00,33,14.20
2009,08,10,00,34,14.20
2009,08,10,00,35,14.20
2009,08,10,00,36,14.20
2009,08,10,00,37,14.10
2009,08,10,00,38,14.10
2009,08,10,00,39,14.10
2009,08,10,00,40,14.10
2009,08,10,00,41,14.10
2009,08,10,00,42,14.10
2009,08,10,00,43,14.10
2009,08,10,00,44,14.10
2009,08,10,00,45,14.10
2009,08,10,00,46,14.10
2009,08,10,00,47,14.10
2009,08,10,00,48,14.10
2009,08,10,00,49,14.10
2009,08,10,00,50,14.10
2009,08,10,00,51,14.10
2009,08,10,00,52,14.10
2009,08,10,00,53,14.10
2009,08,10,00,54,14.00
2009,08,10,00,55,14.00
2009,08,10,00,56,14.00
2009,08,10,00,57,14.00
2009,08,10,00,58,14.00
2009,08,10,00,59,14.00
2009,08,10,01,00,14.00
2009,08,10,01,01,14.00
2009,08,10,01,02,13.90
2009,08,10,01,03,13.90
2009,08,10,01,04,14.00
2009,08,10,01,05,13.90
2009,08,10,01,06,13.90
2009,08,10,01,07,13.90
2009,08,10,01,08,13.90
2009,08,10,01,09,13.90
2009,08,10,01,10,13.90
2009,08,10,01,11,13.90
2009,08,10,01,12,13.90
2009,08,10,01,13,13.90
2009,08,10,01,14,13.90
2009,08,10,01,15,13.90
2009,08,10,01,16,13.90
2009,08,10,01,17,13.90
2009,08,10,01,18,13.90
2009,08,10,01,19,13.90
2009,08,10,01,20,13.90
2009,08,10,01,21,13.90
2009,08,10,01,22,13.90
2009,08,10,01,23,13.90
2009,08,10,01,24,13.90
2009,08,10,01,25,13.90
2009,08,10,01,26,13.80
2009,08,10,01,27,13.80
2009,08,10,01,28,13.80
2009,08,10,01,29,13.80
2009,08,10,01,30,13.80
2009,08,10,01,31,13.80
2009,08,10,01,32,13.80
2009,08,10,01,33,13.80
2009,08,10,01,34,13.80
2009,08,10,01,35,13.80
2009,08,10,01,36,13.70
2009,08,10,01,37,13.70
2009,08,10,01,38,13.70
2009,08,10,01,39,13.70
2009,08,10,01,40,13.70
2009,08,10,01,41,13.70
2009,08,10,01,42,13.70
2009,08,10,01,43,13.70
2009,08,10,01,44,13.60
2009,08,10,01,45,13.60
2009,08,10,01,46,13.60
2009,08,10,01,47,13.60
2009,08,10,01,48,13.60
2009,08,10,01,49,13.60
2009,08,10,01,50,13.60
2009,08,10,01,51,13.60
2009,08,10,01,52,13.60
2009,08,10,01,53,13.60
2009,08,10,01,54,13.60
2009,08,10,01,55,13.60
2009,08,10,01,56,13.60
2009,08,10,01,57,13.60
2009,08,10,01,58,13.60
2009,08,10,01,59,13.60
2009,08,10,02,00,13.60
2009,08,10,02,01,13.60
2009,08,10,02,02,13.60
2009,08,10,02,03,13.60
2009,08,10,02,04,13.60
2009,08,10,02,05,13.60
2009,08,10,02,06,13.60
2009,08,10,02,07,13.60
2009,08,10,02,08,13.60
2009,08,10,02,09,13.60
2009,08,10,02,10,13.60
2009,08,10,02,11,13.60
2009,08,10,02,12,13.50
2009,08,10,02,13,13.50
2009,08,10,02,14,13.50
2009,08,10,02,15,13.50
2009,08,10,02,16,13.40
2009,08,10,02,17,13.40
2009,08,10,02,18,13.40
2009,08,10,02,19,13.40
2009,08,10,02,20,13.40
2009,08,10,02,21,13.40
2009,08,10,02,22,13.40
2009,08,10,02,23,13.40
2009,08,10,02,24,13.40
2009,08,10,02,25,13.40
2009,08,10,02,26,13.40
2009,08,10,02,27,13.40
2009,08,10,02,28,13.40
2009,08,10,02,29,13.40
2009,08,10,02,30,13.30
2009,08,10,02,31,13.30
2009,08,10,02,32,13.30
2009,08,10,02,33,13.30
2009,08,10,02,34,13.30
2009,08,10,02,35,13.30
2009,08,10,02,36,13.30
2009,08,10,02,37,13.30
2009,08,10,02,38,13.30
2009,08,10,02,39,13.30
2009,08,10,02,40,13.30
2009,08,10,02,41,13.30
2009,08,10,02,42,13.30
2009,08,10,02,43,13.30
2009,08,10,02,44,13.30
2009,08,10,02,45,13.40
2009,08,10,02,46,13.40
2009,08,10,02,47,13.40
2009,08,10,02,48,13.40
2009,08,10,02,49,13.40
2009,08,10,02,50,13.40
2009,08,10,02,51,13.40
2009,08,10,02,52,13.40
2009,08,10,02,53,13.40
2009,08,10,02,54,13.40
2009,08,10,02,55,13.40
2009,08,10,02,56,13.40
2009,08,10,02,57,13.40
2009,08,10,02,58,13.40
2009,08,10,02,59,13.40
2009,08,10,03,00,13.40
2009,08,10,03,01,13.40
2009,08,10,03,02,13.40
2009,08,10,03,03,13.30
2009,08,10,03,04,13.30
2009,08,10,03,05,13.40
2009,08,10,03,06,13.40
2009,08,10,03,07,13.40
2009,08,10,03,08,13.40
2009,08,10,03,09,13.30
2009,08,10,03,10,13.40
2009,08,10,03,11,13.30
2009,08,10,03,12,13.30
2009,08,10,03,13,13.40
2009,08,10,03,14,13.40
2009,08,10,03,15,13.40
2009,08,10,03,16,13.40
2009,08,10,03,17,13.40
2009,08,10,03,18,13.40
2009,08,10,03,19,13.40
2009,08,10,03,20,13.40
2009,08,10,03,21,13.40
2009,08,10,03,22,13.40
2009,08,10,03,23,13.40
2009,08,10,03,24,13.40
2009,08,10,03,25,13.40
2009,08,10,03,26,13.40
2009,08,10,03,27,13.40
2009,08,10,03,28,13.40
2009,08,10,03,29,13.40
2009,08,10,03,30,13.40
2009,08,10,03,31,13.40
2009,08,10,03,32,13.40
2009,08,10,03,33,13.40
2009,08,10,03,34,13.40
2009,08,10,03,35,13.40
2009,08,10,03,36,13.40
2009,08,10,03,37,13.40
2009,08,10,03,38,13.40
2009,08,10,03,39,13.40
2009,08,10,03,40,13.40
2009,08,10,03,41,13.40
2009,08,10,03,42,13.30
2009,08,10,03,43,13.30
2009,08,10,03,44,13.30
2009,08,10,03,45,13.30
2009,08,10,03,46,13.30
2009,08,10,03,47,13.30
2009,08,10,03,48,13.30
2009,08,10,03,49,13.30
2009,08,10,03,50,13.30
2009,08,10,03,51,13.30
2009,08,10,03,52,13.30
2009,08,10,03,53,13.30
2009,08,10,03,54,13.30
2009,08,10,03,55,13.30
2009,08,10,03,56,13.30
2009,08,10,03,57,13.30
2009,08,10,03,58,13.30
2009,08,10,03,59,13.30
2009,08,10,04,00,13.30
2009,08,10,04,01,13.30
2009,08,10,04,02,13.30
2009,08,10,04,03,13.30
2009,08,10,04,04,13.30
2009,08,10,04,05,13.30
2009,08,10,04,06,13.30
2009,08,10,04,07,13.30
2009,08,10,04,08,13.30
2009,08,10,04,09,13.30
2009,08,10,04,10,13.30
2009,08,10,04,11,13.30
2009,08,10,04,12,13.30
2009,08,10,04,13,13.30
2009,08,10,04,14,13.30
2009,08,10,04,15,13.30
2009,08,10,04,16,13.30
2009,08,10,04,17,13.30
2009,08,10,04,18,13.30
2009,08,10,04,19,13.30
2009,08,10,04,20,13.30
2009,08,10,04,21,13.30
2009,08,10,04,22,13.30
2009,08,10,04,23,13.30
2009,08,10,04,24,13.30
2009,08,10,04,26,13.30
2009,08,10,04,27,13.30
2009,08,10,04,28,13.30
2009,08,10,04,29,13.30
2009,08,10,04,31,13.30
2009,08,10,04,32,13.30
2009,08,10,04,33,13.30
2009,08,10,04,34,13.30
2009,08,10,04,35,13.30
2009,08,10,04,37,13.30
2009,08,10,04,38,13.30
2009,08,10,04,39,13.30
2009,08,10,04,41,13.30
2009,08,10,04,42,13.30
2009,08,10,04,43,13.30
2009,08,10,04,44,13.20
2009,08,10,04,45,13.20
2009,08,10,04,46,13.20
2009,08,10,04,47,13.20
2009,08,10,04,48,13.20
2009,08,10,04,49,13.30
2009,08,10,04,50,13.20
2009,08,10,04,52,13.20
2009,08,10,04,53,13.20
2009,08,10,04,54,13.20
2009,08,10,04,56,13.20
2009,08,10,04,57,13.20
2009,08,10,04,58,13.20
2009,08,10,04,59,13.20
2009,08,10,05,00,13.20
2009,08,10,05,01,13.20
2009,08,10,05,02,13.20
2009,08,10,05,03,13.20
2009,08,10,05,04,13.20
2009,08,10,05,05,13.20
2009,08,10,05,06,13.20
2009,08,10,05,07,13.20
2009,08,10,05,08,13.20
2009,08,10,05,09,13.20
2009,08,10,05,10,13.20
2009,08,10,05,11,13.20
2009,08,10,05,12,13.20
2009,08,10,05,13,13.20
2009,08,10,05,14,13.20
2009,08,10,05,15,13.20
2009,08,10,05,16,13.20
2009,08,10,05,17,13.20
2009,08,10,05,18,13.20
2009,08,10,05,19,13.30
2009,08,10,05,20,13.30
2009,08,10,05,21,13.30
2009,08,10,05,22,13.30
2009,08,10,05,24,13.30
2009,08,10,05,25,13.30
2009,08,10,05,26,13.30
2009,08,10,05,32,13.40
2009,08,10,05,33,13.40
2009,08,10,05,34,13.40
2009,08,10,05,35,13.40
2009,08,10,05,36,13.40
2009,08,10,05,37,13.40
2009,08,10,05,38,13.40
2009,08,10,05,39,13.50
2009,08,10,05,40,13.50
2009,08,10,05,41,13.50
2009,08,10,05,42,13.50
2009,08,10,05,43,13.50
2009,08,10,05,44,13.50
2009,08,10,05,45,13.50
2009,08,10,05,51,13.60
2009,08,10,05,52,13.60
2009,08,10,05,53,13.60
2009,08,10,05,54,13.60
2009,08,10,05,55,13.60
2009,08,10,05,56,13.60
2009,08,10,05,57,13.60
2009,08,10,05,58,13.60
2009,08,10,06,00,13.50
2009,08,10,06,01,13.50
2009,08,10,06,02,13.50
2009,08,10,06,03,13.40
2009,08,10,06,04,13.50
2009,08,10,06,05,13.40
2009,08,10,06,06,13.40
2009,08,10,06,07,13.40
2009,08,10,06,08,13.40
2009,08,10,06,09,13.40
2009,08,10,06,10,13.40
2009,08,10,06,11,13.30
2009,08,10,06,12,13.30
2009,08,10,06,13,13.30
2009,08,10,06,14,13.30
2009,08,10,06,15,13.30
2009,08,10,06,16,13.20
2009,08,10,06,17,13.30
2009,08,10,06,18,13.20
2009,08,10,06,19,13.20
2009,08,10,06,20,13.20
2009,08,10,06,21,13.20
2009,08,10,06,22,13.20
2009,08,10,06,23,13.20
2009,08,10,06,24,13.20
2009,08,10,06,25,13.20
2009,08,10,06,26,13.20
2009,08,10,06,27,13.20
2009,08,10,06,28,13.20
2009,08,10,06,29,13.20
2009,08,10,06,30,13.20
2009,08,10,06,31,13.20
2009,08,10,06,32,13.20
2009,08,10,06,33,13.20
2009,08,10,06,34,13.20
2009,08,10,06,35,13.20
2009,08,10,06,36,13.20
2009,08,10,06,37,13.20
2009,08,10,06,43,13.30
2009,08,10,06,44,13.20
2009,08,10,06,45,13.30
2009,08,10,06,51,13.30
2009,08,10,06,52,13.30
2009,08,10,06,53,13.30
2009,08,10,06,54,13.30
2009,08,10,06,55,13.30
2009,08,10,06,56,13.30
2009,08,10,06,57,13.30
2009,08,10,06,58,13.30
2009,08,10,06,59,13.30
2009,08,10,07,00,13.30
2009,08,10,07,01,13.30
2009,08,10,07,02,13.30
2009,08,10,07,03,13.30
2009,08,10,07,04,13.30
2009,08,10,07,05,13.30
2009,08,10,07,06,13.30
2009,08,10,07,07,13.30
2009,08,10,07,08,13.30
2009,08,10,07,09,13.30
2009,08,10,07,10,13.30
2009,08,10,07,11,13.30
2009,08,10,07,12,13.30
2009,08,10,07,13,13.30
2009,08,10,07,14,13.30
2009,08,10,07,15,13.30
2009,08,10,07,16,13.30
2009,08,10,07,17,13.30
2009,08,10,07,18,13.30
2009,08,10,07,19,13.30
2009,08,10,07,20,13.30
2009,08,10,07,21,13.30
2009,08,10,07,22,13.30
2009,08,10,07,23,13.40
2009,08,10,07,24,13.40
2009,08,10,07,25,13.40
2009,08,10,07,26,13.40
2009,08,10,07,27,13.40
2009,08,10,07,28,13.40
2009,08,10,07,34,13.50
2009,08,10,07,35,13.50
2009,08,10,07,36,13.50
2009,08,10,07,37,13.50
2009,08,10,07,38,13.50
2009,08,10,07,39,13.50
2009,08,10,07,40,13.50
2009,08,10,07,41,13.60
2009,08,10,07,42,13.60
2009,08,10,07,43,13.60
2009,08,10,07,44,13.60
2009,08,10,07,45,13.60
2009,08,10,07,51,13.70
2009,08,10,07,52,13.70
2009,08,10,07,53,13.80
2009,08,10,07,54,13.80
2009,08,10,07,55,13.80
2009,08,10,07,56,13.80
2009,08,10,07,57,13.80
2009,08,10,07,58,13.80
2009,08,10,08,00,13.90
2009,08,10,08,01,13.90
2009,08,10,08,02,13.90
2009,08,10,08,03,13.90
2009,08,10,08,04,13.90
2009,08,10,08,05,14.00
2009,08,10,08,06,14.00
2009,08,10,08,07,14.00
2009,08,10,08,08,14.00
2009,08,10,08,09,14.00
2009,08,10,08,10,14.10
2009,08,10,08,11,14.10
2009,08,10,08,12,14.10
2009,08,10,08,13,14.10
2009,08,10,08,14,14.10
2009,08,10,08,15,14.10
2009,08,10,08,16,14.20
2009,08,10,08,17,14.20
2009,08,10,08,18,14.20
2009,08,10,08,19,14.20
2009,08,10,08,20,14.20
2009,08,10,08,21,14.30
2009,08,10,08,22,14.30
2009,08,10,08,23,14.30
2009,08,10,08,24,14.30
2009,08,10,08,25,14.40
2009,08,10,08,26,14.40
2009,08,10,08,27,14.40
2009,08,10,08,28,14.40
2009,08,10,08,29,14.40
2009,08,10,08,30,14.40
2009,08,10,08,31,14.40
2009,08,10,08,32,14.40
2009,08,10,08,33,14.40
2009,08,10,08,34,14.40
2009,08,10,08,35,14.40
2009,08,10,08,36,14.50
2009,08,10,08,37,14.50
2009,08,10,08,38,14.50
2009,08,10,08,39,14.50
2009,08,10,08,40,14.50
2009,08,10,08,41,14.50
2009,08,10,08,42,14.60
2009,08,10,08,43,14.60
2009,08,10,08,44,14.60
2009,08,10,08,45,14.60
2009,08,10,08,51,14.60
2009,08,10,08,52,14.60
2009,08,10,08,53,14.70
2009,08,10,08,54,14.70
2009,08,10,08,56,14.70
2009,08,10,08,57,14.70
2009,08,10,08,58,14.70
2009,08,10,08,59,14.70
2009,08,10,09,01,14.70
2009,08,10,09,02,14.70
2009,08,10,09,04,14.80
2009,08,10,09,05,14.80
2009,08,10,09,09,14.80
2009,08,10,09,11,14.80
2009,08,10,09,12,14.90
2009,08,10,09,21,15.00
2009,08,10,09,22,15.00
2009,08,10,09,23,15.00
2009,08,10,09,24,15.00
2009,08,10,09,25,15.00
2009,08,10,09,26,15.00
2009,08,10,09,27,15.00
2009,08,10,09,28,15.10
2009,08,10,09,29,15.10
2009,08,10,09,30,15.20
2009,08,10,09,31,15.20
2009,08,10,09,32,15.20
2009,08,10,09,33,15.30
2009,08,10,09,34,15.30
2009,08,10,09,35,15.30
2009,08,10,09,36,15.30
2009,08,10,09,37,15.40
2009,08,10,09,38,15.40
2009,08,10,09,39,15.40
2009,08,10,09,40,15.50
2009,08,10,09,41,15.50
2009,08,10,09,42,15.60
2009,08,10,09,43,15.60
2009,08,10,09,44,15.60
2009,08,10,09,45,15.60
2009,08,10,09,51,15.70
2009,08,10,09,52,15.70
2009,08,10,09,53,15.70
2009,08,10,09,54,15.80
2009,08,10,09,55,15.80
2009,08,10,09,56,15.80
2009,08,10,09,57,15.80
2009,08,10,09,58,15.80
2009,08,10,10,00,15.80
2009,08,10,10,01,15.90
2009,08,10,10,02,15.90
2009,08,10,10,03,15.90
2009,08,10,10,04,15.90
2009,08,10,10,05,15.90
2009,08,10,10,06,15.90
2009,08,10,10,07,15.90
2009,08,10,10,08,16.00
2009,08,10,10,09,15.90
2009,08,10,10,10,16.00
2009,08,10,10,11,16.00
2009,08,10,10,12,16.00
2009,08,10,10,13,16.00
2009,08,10,10,14,16.00
2009,08,10,10,15,16.00
2009,08,10,10,16,15.90
2009,08,10,10,17,15.90
2009,08,10,10,18,15.90
2009,08,10,10,19,16.00
2009,08,10,10,20,15.90
2009,08,10,10,21,16.00
2009,08,10,10,22,16.00
2009,08,10,10,23,16.00
2009,08,10,10,24,16.00
2009,08,10,10,25,16.00
2009,08,10,10,26,16.00
2009,08,10,10,32,15.90
2009,08,10,10,33,15.90
2009,08,10,10,34,15.90
2009,08,10,10,35,15.90
2009,08,10,10,36,15.90
2009,08,10,10,37,15.90
2009,08,10,10,38,15.80
2009,08,10,10,39,15.80
2009,08,10,10,40,15.80
2009,08,10,10,41,15.80
2009,08,10,10,42,15.80
2009,08,10,10,43,15.80
2009,08,10,10,44,15.80
2009,08,10,10,45,15.80
2009,08,10,10,51,15.80
2009,08,10,10,52,15.80
2009,08,10,10,53,15.80
2009,08,10,10,54,15.70
2009,08,10,10,56,15.80
2009,08,10,10,57,15.80
2009,08,10,10,58,15.80
2009,08,10,10,59,15.80
2009,08,10,11,00,15.80
2009,08,10,11,01,15.80
2009,08,10,11,02,15.80
2009,08,10,11,03,15.80
2009,08,10,11,04,15.80
2009,08,10,11,05,15.80
2009,08,10,11,06,15.80
2009,08,10,11,07,15.80
2009,08,10,11,08,15.80
2009,08,10,11,09,15.80
2009,08,10,11,10,15.90
2009,08,10,11,11,15.90
2009,08,10,11,12,15.90
2009,08,10,11,13,15.90
2009,08,10,11,14,15.90
2009,08,10,11,15,15.90
2009,08,10,11,16,15.90
2009,08,10,11,18,16.00
2009,08,10,11,19,16.00
2009,08,10,11,20,15.90
2009,08,10,11,21,15.90
2009,08,10,11,22,15.90
2009,08,10,11,23,15.90
2009,08,10,11,24,15.90
2009,08,10,11,25,15.90
2009,08,10,11,26,15.90
2009,08,10,11,27,15.90
2009,08,10,11,28,15.90
2009,08,10,11,29,15.90
2009,08,10,11,30,15.90
2009,08,10,11,31,15.90
2009,08,10,11,32,15.90
2009,08,10,11,33,15.90
2009,08,10,11,34,15.90
2009,08,10,11,35,15.90
2009,08,10,11,36,15.90
2009,08,10,11,37,15.90
2009,08,10,11,38,15.80
2009,08,10,11,39,15.80
2009,08,10,11,40,15.80
2009,08,10,11,45,15.60
2009,08,10,11,51,15.60
2009,08,10,11,52,15.60
2009,08,10,11,53,15.60
2009,08,10,11,54,15.60
2009,08,10,11,55,15.60
2009,08,10,11,57,15.60
2009,08,10,11,59,15.60
2009,08,10,12,00,15.60
2009,08,10,12,01,15.60
2009,08,10,12,02,15.60
2009,08,10,12,03,15.60
2009,08,10,12,04,15.60
2009,08,10,12,05,15.60
2009,08,10,12,07,15.70
2009,08,10,12,09,15.70
2009,08,10,12,10,15.80
2009,08,10,12,11,15.80
2009,08,10,12,12,15.80
2009,08,10,12,13,15.80
2009,08,10,12,14,15.80
2009,08,10,12,15,15.80
2009,08,10,12,16,15.80
2009,08,10,12,17,15.80
2009,08,10,12,18,15.80
2009,08,10,12,19,15.80
2009,08,10,12,20,15.80
2009,08,10,12,21,15.80
2009,08,10,12,23,15.80
2009,08,10,12,25,15.70
2009,08,10,12,27,15.70
2009,08,10,12,29,15.70
2009,08,10,12,31,15.70
2009,08,10,12,33,15.60
2009,08,10,12,35,15.60
2009,08,10,12,37,15.50
2009,08,10,12,39,15.50
2009,08,10,12,41,15.40
2009,08,10,12,43,15.40
2009,08,10,12,45,15.40
2009,08,10,12,47,15.40
2009,08,10,12,49,15.30
2009,08,10,12,50,15.30
2009,08,10,12,52,15.30
2009,08,10,12,54,15.30
2009,08,10,12,56,15.30
2009,08,10,12,57,15.30
2009,08,10,12,58,15.30
2009,08,10,12,59,15.40
2009,08,10,13,00,15.40
2009,08,10,13,01,15.40
2009,08,10,13,02,15.40
2009,08,10,13,03,15.40
2009,08,10,13,04,15.40
2009,08,10,13,05,15.40
2009,08,10,13,06,15.40
2009,08,10,13,08,15.40
2009,08,10,13,09,15.40
2009,08,10,13,10,15.40
2009,08,10,13,11,15.50
2009,08,10,13,12,15.50
2009,08,10,13,13,15.50
2009,08,10,13,14,15.50
2009,08,10,13,15,15.50
2009,08,10,13,16,15.50
2009,08,10,13,17,15.50
2009,08,10,13,18,15.50
2009,08,10,13,19,15.50
2009,08,10,13,20,15.40
2009,08,10,13,21,15.40
2009,08,10,13,22,15.40
2009,08,10,13,23,15.40
2009,08,10,13,24,15.40
2009,08,10,13,25,15.40
2009,08,10,13,26,15.40
2009,08,10,13,27,15.40
2009,08,10,13,28,15.30
2009,08,10,13,29,15.30
2009,08,10,13,30,15.30
2009,08,10,13,31,15.30
2009,08,10,13,32,15.30
2009,08,10,13,33,15.30
2009,08,10,13,34,15.20
2009,08,10,13,35,15.20
2009,08,10,13,36,15.20
2009,08,10,13,37,15.20
2009,08,10,13,38,15.20
2009,08,10,13,39,15.20
2009,08,10,13,40,15.20
2009,08,10,13,41,15.20
2009,08,10,13,42,15.20
2009,08,10,13,43,15.20
2009,08,10,13,44,15.20
2009,08,10,13,45,15.20
2009,08,10,13,46,15.20
2009,08,10,13,47,15.30
2009,08,10,13,48,15.30
2009,08,10,13,50,15.30
2009,08,10,13,51,15.30
2009,08,10,13,52,15.30
2009,08,10,13,53,15.30
2009,08,10,13,54,15.30
2009,08,10,13,55,15.30
2009,08,10,13,56,15.40
2009,08,10,13,57,15.40
2009,08,10,13,58,15.40
2009,08,10,13,59,15.40
2009,08,10,14,00,15.40
2009,08,10,14,01,15.50
2009,08,10,14,02,15.60
2009,08,10,14,03,15.60
2009,08,10,14,04,15.60
2009,08,10,14,05,15.60
2009,08,10,14,06,15.60
2009,08,10,14,07,15.60
2009,08,10,14,08,15.60
2009,08,10,14,09,15.70
2009,08,10,14,10,15.70
2009,08,10,14,11,15.70
2009,08,10,14,12,15.70
2009,08,10,14,13,15.70
2009,08,10,14,14,15.70
2009,08,10,14,15,15.70
2009,08,10,14,21,15.80
2009,08,10,14,22,15.80
2009,08,10,14,26,15.80
2009,08,10,14,29,15.80
2009,08,10,14,30,15.80
2009,08,10,14,31,15.80
2009,08,10,14,32,15.80
2009,08,10,14,33,15.80
2009,08,10,14,34,15.70
2009,08,10,14,35,15.70
2009,08,10,14,36,15.80
2009,08,10,14,37,15.80
2009,08,10,14,38,15.70
2009,08,10,14,39,15.70
2009,08,10,14,40,15.70
2009,08,10,14,41,15.70
2009,08,10,14,42,15.70
2009,08,10,14,43,15.80
2009,08,10,14,44,15.80
2009,08,10,14,45,15.80
2009,08,10,14,46,15.80
2009,08,10,14,47,15.80
2009,08,10,14,48,15.80
2009,08,10,14,49,15.80
2009,08,10,14,50,15.90
2009,08,10,14,51,15.90
2009,08,10,14,52,15.90
2009,08,10,14,53,15.90
2009,08,10,14,54,15.90
2009,08,10,14,55,15.90
2009,08,10,14,56,15.90
2009,08,10,14,57,15.90
2009,08,10,14,58,15.90
2009,08,10,14,59,15.90
2009,08,10,15,00,15.90
2009,08,10,15,01,15.90
2009,08,10,15,02,15.90
2009,08,10,15,03,15.80
2009,08,10,15,04,15.80
2009,08,10,15,05,15.80
2009,08,10,15,06,15.90
2009,08,10,15,07,15.90
2009,08,10,15,08,15.90
2009,08,10,15,09,15.90
2009,08,10,15,10,15.90
2009,08,10,15,11,15.90
2009,08,10,15,12,15.90
2009,08,10,15,13,15.90
2009,08,10,15,14,15.90
2009,08,10,15,15,16.00
2009,08,10,15,16,15.90
2009,08,10,15,17,16.00
2009,08,10,15,18,15.90
2009,08,10,15,19,15.90
2009,08,10,15,20,16.00
2009,08,10,15,21,15.90
2009,08,10,15,22,16.00
2009,08,10,15,23,16.00
2009,08,10,15,24,16.00
2009,08,10,15,25,16.10
2009,08,10,15,26,16.10
2009,08,10,15,27,16.10
2009,08,10,15,28,16.20
2009,08,10,15,29,16.20
2009,08,10,15,30,16.20
2009,08,10,15,31,16.30
2009,08,10,15,32,16.30
2009,08,10,15,33,16.40
2009,08,10,15,34,16.50
2009,08,10,15,35,16.60
2009,08,10,15,36,16.60
2009,08,10,15,37,16.70
2009,08,10,15,38,16.70
2009,08,10,15,39,16.80
2009,08,10,15,40,16.80
2009,08,10,15,41,16.80
2009,08,10,15,42,16.80
2009,08,10,15,43,16.80
2009,08,10,15,44,16.80
2009,08,10,15,45,16.80
2009,08,10,15,46,16.80
2009,08,10,15,47,16.80
2009,08,10,15,48,16.80
2009,08,10,15,49,16.80
2009,08,10,15,50,16.80
2009,08,10,15,51,16.80
2009,08,10,15,52,16.80
2009,08,10,15,53,16.70
2009,08,10,15,54,16.70
2009,08,10,15,55,16.70
2009,08,10,15,56,16.70
2009,08,10,15,57,16.70
2009,08,10,15,58,16.70
2009,08,10,15,59,16.80
2009,08,10,16,00,16.80
2009,08,10,16,01,16.80
2009,08,10,16,02,16.80
2009,08,10,16,03,16.80
2009,08,10,16,04,16.80
2009,08,10,16,05,16.80
2009,08,10,16,06,16.80
2009,08,10,16,07,16.80
2009,08,10,16,08,16.80
2009,08,10,16,09,16.90
2009,08,10,16,10,16.90
2009,08,10,16,11,16.90
2009,08,10,16,12,16.80
2009,08,10,16,13,16.80
2009,08,10,16,14,16.80
2009,08,10,16,15,16.80
2009,08,10,16,16,16.80
2009,08,10,16,17,16.80
2009,08,10,16,18,16.80
2009,08,10,16,19,16.80
2009,08,10,16,20,16.80
2009,08,10,16,21,16.80
2009,08,10,16,22,16.80
2009,08,10,16,23,16.80
2009,08,10,16,24,16.80
2009,08,10,16,25,16.80
2009,08,10,16,26,16.80
2009,08,10,16,27,16.80
2009,08,10,16,28,16.80
2009,08,10,16,29,16.80
2009,08,10,16,30,16.80
2009,08,10,16,31,16.80
2009,08,10,16,32,16.90
2009,08,10,16,33,16.90
2009,08,10,16,34,16.90
2009,08,10,16,35,16.90
2009,08,10,16,36,17.10
2009,08,10,16,37,17.10
2009,08,10,16,38,17.20
2009,08,10,16,39,17.20
2009,08,10,16,40,17.20
2009,08,10,16,41,17.20
2009,08,10,16,42,17.20
2009,08,10,16,43,17.10
2009,08,10,16,44,17.10
2009,08,10,16,45,17.10
2009,08,10,16,46,17.10
2009,08,10,16,47,17.10
2009,08,10,16,48,17.10
2009,08,10,16,49,17.10
2009,08,10,16,50,17.10
2009,08,10,16,51,17.10
2009,08,10,16,52,17.10
2009,08,10,16,53,17.10
2009,08,10,16,54,17.10
2009,08,10,16,55,17.00
2009,08,10,16,56,17.10
2009,08,10,16,57,17.10
2009,08,10,16,58,17.10
2009,08,10,16,59,17.20
2009,08,10,17,00,17.20
2009,08,10,17,01,17.20
2009,08,10,17,02,17.30
2009,08,10,17,03,17.30
2009,08,10,17,04,17.40
2009,08,10,17,05,17.50
2009,08,10,17,06,17.60
2009,08,10,17,07,17.60
2009,08,10,17,08,17.60
2009,08,10,17,09,17.60
2009,08,10,17,10,17.60
2009,08,10,17,11,17.60
2009,08,10,17,12,17.60
2009,08,10,17,13,17.60
2009,08,10,17,14,17.60
2009,08,10,17,15,17.70
2009,08,10,17,16,17.60
2009,08,10,17,17,17.60
2009,08,10,17,18,17.60
2009,08,10,17,19,17.60
2009,08,10,17,20,17.60
2009,08,10,17,21,17.60
2009,08,10,17,22,17.60
2009,08,10,17,23,17.60
2009,08,10,17,24,17.60
2009,08,10,17,25,17.60
2009,08,10,17,26,17.60
2009,08,10,17,27,17.60
2009,08,10,17,28,17.60
2009,08,10,17,29,17.50
2009,08,10,17,30,17.50
2009,08,10,17,31,17.50
2009,08,10,17,32,17.50
2009,08,10,17,33,17.40
2009,08,10,17,34,17.40
2009,08,10,17,35,17.40
2009,08,10,17,38,17.30
2009,08,10,17,39,17.30
2009,08,10,17,40,17.30
2009,08,10,17,41,17.30
2009,08,10,17,42,17.20
2009,08,10,17,43,17.20
2009,08,10,17,44,17.10
2009,08,10,17,45,17.00
2009,08,10,17,46,16.90
2009,08,10,17,47,16.90
2009,08,10,17,48,16.90
2009,08,10,17,49,16.80
2009,08,10,17,50,16.80
2009,08,10,17,51,16.80
2009,08,10,17,52,16.80
2009,08,10,17,53,16.80
2009,08,10,17,54,16.80
2009,08,10,17,55,16.80
2009,08,10,17,56,16.80
2009,08,10,17,57,16.80
2009,08,10,17,58,16.80
2009,08,10,17,59,16.80
2009,08,10,18,00,16.80
2009,08,10,18,01,16.90
2009,08,10,18,02,16.90
2009,08,10,18,03,16.90
2009,08,10,18,04,17.00
2009,08,10,18,05,17.00
2009,08,10,18,06,17.00
2009,08,10,18,07,17.00
2009,08,10,18,08,17.10
2009,08,10,18,09,17.10
2009,08,10,18,10,17.10
2009,08,10,18,11,17.10
2009,08,10,18,12,17.10
2009,08,10,18,13,17.10
2009,08,10,18,14,17.10
2009,08,10,18,15,17.00
2009,08,10,18,16,17.00
2009,08,10,18,17,17.00
2009,08,10,18,18,17.00
2009,08,10,18,19,17.00
2009,08,10,18,20,17.00
2009,08,10,18,21,17.00
2009,08,10,18,22,17.10
2009,08,10,18,23,17.10
2009,08,10,18,24,17.10
2009,08,10,18,25,17.10
2009,08,10,18,26,17.00
2009,08,10,18,27,16.90
2009,08,10,18,28,16.90
2009,08,10,18,29,16.90
2009,08,10,18,30,16.90
2009,08,10,18,31,16.90
2009,08,10,18,32,16.90
2009,08,10,18,33,16.90
2009,08,10,18,34,16.80
2009,08,10,18,35,16.90
2009,08,10,18,36,16.90
2009,08,10,18,37,16.90
2009,08,10,18,38,16.90
2009,08,10,18,39,17.00
2009,08,10,18,40,17.00
2009,08,10,18,41,17.10
2009,08,10,18,42,17.10
2009,08,10,18,43,17.10
2009,08,10,18,44,17.10
2009,08,10,18,45,17.10
2009,08,10,18,46,17.10
2009,08,10,18,47,17.10
2009,08,10,18,48,17.10
2009,08,10,18,49,17.10
2009,08,10,18,50,17.10
2009,08,10,18,51,17.10
2009,08,10,18,52,17.10
2009,08,10,18,53,17.10
2009,08,10,18,54,17.10
2009,08,10,18,55,17.10
2009,08,10,18,56,17.10
2009,08,10,18,57,17.00
2009,08,10,18,58,16.90
2009,08,10,18,59,16.90
2009,08,10,19,00,16.80
2009,08,10,19,01,16.70
2009,08,10,19,02,16.70
2009,08,10,19,03,16.70
2009,08,10,19,04,16.60
2009,08,10,19,05,16.60
2009,08,10,19,06,16.50
2009,08,10,19,07,16.50
2009,08,10,19,08,16.40
2009,08,10,19,09,16.40
2009,08,10,19,10,16.40
2009,08,10,19,11,16.40
2009,08,10,19,12,16.40
2009,08,10,19,13,16.40
2009,08,10,19,14,16.40
2009,08,10,19,15,16.40
2009,08,10,19,16,16.40
2009,08,10,19,18,16.40
2009,08,10,19,19,16.40
2009,08,10,19,20,16.40
2009,08,10,19,21,16.40